Wind_Speed
33 34 38 37 38 40 37 34 30 27 26 26 25 23 23 22 19 20 20 22 25 23 21 23 17 14 13 14 15 13 12 12 12 10 7 5 2 2 3 6 9 11 13 15 17 17 18 20 20
37 36 38 42 44 41 37 34 32 31 28 26 25 23 23 19 21 22 21 25 25 21 22 23 21 16 14 16 14 12 10 10 10 9 7 5 1 1 3 6 9 12 13 16 15 16 16 16 16
41 40 40 44 47 41 35 34 33 36 36 29 26 24 31 21 20 23 21 22 23 23 22 22 21 18 16 15 13 13 12 11 11 9 7 4 2 2 4 7 10 11 12 14 12 13 14 13 15
48 47 47 48 43 36 35 36 39 40 39 35 29 28 26 26 22 22 21 20 24 26 22 21 19 18 18 16 15 14 13 12 11 9 7 5 4 4 5 7 10 11 12 12 11 11 12 13 15
55 53 53 53 43 33 40 38 44 44 44 41 35 25 33 31 25 23 24 22 24 27 22 19 17 15 17 16 16 15 13 12 11 9 8 6 6 6 7 9 10 10 11 13 13 13 14 15 17
59 59 58 55 46 35 38 42 45 47 48 44 39 32 30 28 25 26 26 25 25 27 24 20 17 15 16 16 16 15 14 13 11 10 9 8 7 7 8 11 11 11 11 14 16 16 18 19 20
62 62 61 56 49 42 36 45 46 46 50 47 42 36 35 25 22 25 28 28 26 26 24 19 16 14 15 16 16 16 14 13 12 11 10 9 8 9 10 12 12 12 13 16 18 20 20 20 21
65 66 66 61 51 44 42 42 48 47 49 50 47 42 37 34 32 31 26 28 28 25 22 18 15 16 17 17 16 16 14 13 13 12 11 10 10 10 11 13 13 13 15 17 18 20 20 21 22
67 70 70 63 56 49 47 46 49 50 49 54 52 46 42 36 36 33 28 28 28 24 21 18 16 17 19 19 18 17 15 13 13 13 13 13 13 12 14 15 15 15 16 16 17 19 20 21 23
72 73 71 65 59 55 50 51 49 54 52 52 53 48 45 41 37 35 31 29 33 29 23 20 20 20 21 22 21 19 17 16 15 15 15 15 16 16 17 18 18 17 18 21 23 23 23 24 25
69 74 72 67 63 60 56 54 54 53 56 52 51 53 49 44 42 40 35 31 31 34 30 23 23 24 23 24 23 21 20 19 18 19 19 19 20 20 21 21 22 21 21 23 26 25 25 27 27
66 70 74 69 65 64 61 57 58 55 54 55 53 53 51 45 39 42 41 32 36 37 36 31 28 27 24 25 25 25 23 21 22 22 22 24 24 23 24 25 25 26 26 28 29 30 29 29 28
64 67 70 68 65 66 64 60 58 56 54 57 56 54 53 47 39 41 36 34 37 41 38 31 30 28 28 28 27 25 24 24 24 25 26 27 27 27 28 28 28 29 30 31 32 33 32 31 31
60 66 69 68 66 68 66 64 60 54 55 57 60 56 54 52 45 34 37 39 43 42 38 33 32 33 31 30 28 28 27 27 27 27 28 30 31 31 30 31 33 34 33 35 35 35 35 34 33
58 68 69 66 66 67 68 68 57 54 57 59 61 58 55 54 50 39 39 43 38 38 38 35 35 35 33 33 31 31 29 28 29 28 31 34 35 34 34 36 37 37 38 39 37 39 38 36 36
62 70 71 65 65 65 69 62 60 56 57 59 60 61 57 54 51 49 39 44 44 33 45 39 37 34 34 33 31 28 27 27 29 30 33 36 37 39 39 41 43 42 44 38 38 41 41 36 35
65 69 67 62 61 64 65 65 64 57 58 57 59 59 59 55 51 52 50 36 34 34 35 32 38 35 35 31 28 25 24 28 32 36 41 43 43 45 47 49 51 50 47 47 47 47 42 34 32
56 65 63 60 59 62 64 66 63 59 59 57 59 56 56 55 51 49 47 50 46 39 45 38 41 39 36 32 32 27 28 33 36 40 45 50 53 56 60 59 57 57 60 55 49 46 42 32 31
45 56 59 56 57 58 62 67 63 57 59 57 59 57 53 54 50 48 42 38 36 48 45 47 42 41 42 37 27 29 29 35 39 45 49 54 56 59 59 61 60 66 65 50 43 41 43 43 30
35 42 52 50 54 56 63 65 59 56 58 55 57 55 52 49 47 47 43 36 36 34 38 40 39 29 32 30 32 30 34 38 43 47 56 58 58 49 64 61 67 66 61 53 47 44 38 33 30
33 32 44 47 49 54 60 62 59 55 56 55 55 55 51 47 45 46 45 38 36 35 39 39 39 35 33 33 31 32 36 40 45 42 48 49 43 43 47 55 56 55 57 49 51 34 27 21 25
27 30 36 41 46 48 56 57 57 54 54 54 53 52 51 47 45 49 49 47 42 42 43 40 34 32 31 34 37 40 37 42 46 45 42 39 45 47 58 59 45 61 54 35 32 22 18 21 28
28 32 30 36 40 44 50 53 55 55 54 51 49 49 50 48 46 46 51 50 45 43 45 44 44 42 46 46 44 43 43 40 34 34 36 36 38 43 59 50 39 47 41 41 34 22 12 24 31
26 23 28 31 36 39 44 51 50 54 49 48 48 46 47 48 47 46 49 52 53 50 47 50 50 46 38 36 36 36 34 31 30 31 33 35 41 42 46 33 36 37 32 23 13 14 23 30 33
28 21 24 28 33 37 40 45 48 49 47 46 43 45 47 47 46 45 43 46 49 49 44 41 38 34 32 31 31 30 32 30 28 32 33 34 41 34 49 45 33 37 21 12 9 15 26 31 34
21 23 23 26 29 34 37 41 45 46 48 47 43 44 47 46 46 44 43 41 40 38 35 34 30 28 26 26 25 26 30 30 26 30 36 34 32 28 34 36 36 26 19 16 20 26 29 32 36
20 24 24 25 27 31 35 39 40 41 42 44 44 44 45 46 44 41 40 37 35 33 33 28 27 26 25 26 29 28 28 29 26 27 25 32 32 25 25 34 42 43 46 20 23 28 32 36 35
19 24 25 26 28 30 33 36 35 37 40 40 41 40 42 42 39 37 37 33 33 30 24 25 26 25 29 29 30 30 28 25 28 29 30 35 34 28 32 35 37 29 21 22 26 31 34 36 34
21 23 24 25 27 28 30 32 34 34 36 39 39 37 38 37 37 35 31 32 28 24 24 27 29 29 28 31 33 31 29 31 32 34 38 33 28 28 39 37 25 14 17 27 29 33 35 33 38
20 23 25 26 24 26 27 30 33 33 36 39 38 36 37 35 35 34 33 29 27 27 30 32 33 31 33 35 34 36 32 33 36 38 32 21 29 35 39 25 16 16 20 28 33 31 31 37 40
Wind_Direction
244 239 236 225 224 217 213 213 216 224 220 217 224 223 223 207 209 210 203 196 188 188 184 164 160 170 178 183 173 162 151 143 136 131 144 167 143 61 18 351 359 2 4 3 2 11 14 21 29
244 241 238 233 227 220 211 212 215 225 227 218 224 230 236 205 209 204 203 200 190 189 184 172 162 174 185 184 177 166 155 152 141 139 163 182 185 5 342 344 353 357 359 358 4 9 15 17 26
240 242 240 238 231 218 210 209 210 222 229 219 218 219 177 211 218 206 207 199 198 182 183 179 167 175 187 184 178 167 160 159 154 160 178 193 230 293 324 338 345 349 353 355 2 5 10 12 14
239 238 241 241 238 221 212 208 209 218 225 226 215 196 201 214 219 217 208 199 195 182 182 185 178 179 184 183 184 174 169 172 167 170 188 209 242 277 306 329 335 341 346 350 354 4 3 358 354
237 237 238 240 238 224 216 209 213 215 223 224 221 209 202 213 217 221 204 197 194 185 178 190 193 189 192 187 190 185 181 181 176 177 196 223 251 284 307 322 329 334 343 344 340 340 337 336 339
235 236 237 238 238 230 218 215 215 216 223 222 225 212 204 212 215 219 211 193 198 189 179 190 197 200 205 203 203 197 189 185 185 190 208 225 251 282 302 317 322 327 332 331 328 328 328 331 332
233 234 236 237 234 228 219 218 216 218 221 226 224 217 210 204 224 229 217 199 200 200 188 190 199 208 218 219 213 212 205 196 196 204 221 238 260 278 301 312 314 317 323 324 320 322 326 326 327
233 232 233 232 228 224 222 220 217 219 218 222 224 223 217 215 222 234 236 210 201 202 204 193 202 219 221 220 220 222 212 206 211 218 231 247 260 276 292 300 307 311 316 316 319 320 317 318 320
233 231 232 229 227 223 219 218 217 216 220 219 223 221 220 218 216 227 228 212 209 202 208 205 213 228 228 223 222 226 225 220 222 227 241 253 265 273 284 293 296 303 308 312 314 314 317 317 311
234 231 232 228 225 222 218 218 218 215 218 220 221 222 222 222 213 224 230 226 216 213 202 211 220 228 236 226 221 222 223 222 223 234 245 255 265 269 277 283 287 294 302 305 304 306 305 306 304
233 231 231 227 223 220 218 218 218 216 215 221 218 221 221 219 217 221 218 228 236 224 217 213 220 229 237 237 227 223 223 226 229 235 243 252 259 264 271 279 282 285 292 297 300 301 299 300 301
236 230 230 227 221 220 217 217 218 216 214 216 220 218 222 220 215 223 228 231 238 233 221 210 218 224 228 236 234 226 224 228 232 238 244 251 255 260 268 273 277 281 284 286 292 296 297 298 299
233 232 230 226 221 219 215 216 218 216 215 215 218 216 222 221 214 219 224 229 230 227 221 215 217 221 223 226 230 232 234 234 238 243 247 251 256 260 263 267 272 276 278 282 288 293 294 294 298
234 230 227 226 221 216 214 214 215 214 215 215 217 215 218 221 213 216 233 229 222 212 214 216 216 220 221 226 229 232 235 237 240 245 252 256 259 261 262 265 269 271 275 281 284 285 287 291 294
236 229 226 222 220 215 212 213 211 215 217 215 217 217 214 219 218 215 225 225 215 222 219 208 219 222 223 225 226 229 231 240 246 251 256 259 259 259 260 263 267 270 274 276 277 280 283 284 290
228 226 223 218 219 214 212 205 212 213 215 215 217 219 215 217 217 214 220 227 222 234 220 209 217 225 229 230 230 235 242 250 256 259 262 262 264 263 261 262 264 263 268 262 267 271 274 274 283
221 221 219 216 217 213 211 207 211 212 213 214 218 217 217 217 217 213 222 215 218 215 227 225 218 223 231 230 237 241 253 263 269 273 274 270 264 262 260 258 262 259 257 259 258 265 261 266 277
221 219 214 210 212 213 208 206 211 209 212 210 218 218 218 216 217 217 222 227 223 231 230 222 222 224 226 229 232 240 259 270 271 273 274 272 271 278 275 262 259 257 257 259 251 259 253 255 269
221 214 209 205 208 208 206 208 207 209 211 207 213 219 217 218 214 218 222 222 224 229 235 226 220 222 225 229 256 255 266 274 272 272 269 268 271 268 263 264 257 271 262 257 257 260 263 264 266
204 210 206 200 204 202 207 208 208 207 209 208 211 216 218 220 211 215 220 223 222 232 231 223 228 252 248 253 262 269 272 275 274 276 279 285 272 290 267 283 271 266 266 263 258 258 260 259 271
196 198 199 197 201 200 204 209 207 205 208 209 211 212 216 217 214 209 215 216 227 236 225 228 232 235 248 256 263 271 277 275 274 291 301 301 294 309 303 297 296 280 259 258 263 258 265 280 280
158 204 194 193 199 199 203 206 205 206 210 209 214 216 216 218 216 210 212 221 227 232 232 238 237 244 250 259 266 274 273 276 284 290 290 294 301 307 306 294 277 260 253 248 254 261 269 284 293
185 197 189 191 195 196 202 203 204 206 208 211 213 217 219 219 217 216 217 217 222 226 235 238 244 257 270 275 277 279 281 286 290 296 301 295 293 299 305 285 253 255 249 256 271 279 286 287 294
157 201 187 187 189 193 199 203 202 207 209 214 214 215 219 222 221 220 221 223 226 231 238 247 255 263 267 270 278 285 288 294 297 297 300 290 284 296 302 248 249 256 236 247 278 285 295 298 297
173 171 174 181 185 188 195 204 198 203 205 211 213 214 218 221 223 225 225 228 231 237 243 249 256 265 274 279 284 291 292 297 294 296 291 295 280 295 302 263 256 253 270 296 299 294 285 290 294
189 180 174 178 182 186 191 200 200 199 204 206 209 211 216 222 226 228 231 233 238 243 246 250 261 264 269 283 296 304 308 299 293 294 294 288 293 304 262 264 248 256 313 321 300 289 292 293 297
175 178 176 175 180 184 190 197 200 198 202 209 210 211 216 219 225 231 236 239 240 242 244 251 254 262 277 286 293 303 306 292 280 284 290 282 290 280 272 283 280 289 296 295 293 293 295 293 294
166 176 174 176 178 181 187 194 200 197 199 207 208 209 213 218 221 225 230 235 241 244 239 246 258 272 279 288 294 296 301 281 274 271 276 280 274 261 259 263 271 282 266 283 292 290 288 293 298
167 174 177 176 177 181 186 190 197 198 196 202 208 208 210 212 217 221 225 225 227 235 245 258 265 269 284 290 292 290 285 267 268 265 258 257 262 253 247 257 261 262 284 286 291 288 291 296 301
172 181 180 177 177 181 186 191 194 198 196 197 203 207 212 211 209 207 211 222 230 238 249 256 265 278 283 289 284 285 279 267 267 264 232 252 240 249 260 262 283 284 285 285 287 285 291 297 302
Height
5858 5860 5863 5865 5868 5869 5873 5879 5882 5884 5888 5888 5891 5895 5898 5900 5900 5903 5901 5902 5905 5908 5910 5910 5913 5917 5918 5919 5919 5919 5920 5921 5921 5922 5924 5925 5926 5927 5927 5928 5927 5926 5925 5924 5923 5922 5920 5917 5915
5851 5853 5856 5858 5858 5864 5871 5876 5880 5880 5882 5886 5887 5891 5893 5898 5899 5899 5900 5901 5902 5906 5908 5909 5910 5915 5917 5918 5918 5918 5919 5920 5921 5922 5924 5924 5925 5926 5928 5928 5928 5926 5926 5925 5923 5922 5920 5919 5917
5843 5845 5848 5847 5850 5858 5869 5873 5876 5875 5877 5882 5884 5887 5890 5894 5897 5897 5897 5900 5902 5903 5908 5910 5909 5912 5915 5917 5918 5918 5918 5920 5920 5921 5922 5924 5926 5927 5928 5928 5927 5926 5925 5924 5923 5922 5920 5919 5918
5833 5836 5838 5837 5845 5862 5865 5869 5869 5870 5873 5877 5881 5886 5890 5890 5894 5897 5898 5899 5901 5903 5907 5909 5910 5911 5914 5915 5917 5917 5918 5919 5919 5920 5923 5925 5925 5926 5926 5926 5926 5925 5924 5924 5922 5921 5919 5918 5917
5822 5825 5827 5829 5840 5854 5858 5861 5862 5865 5867 5872 5877 5882 5886 5887 5891 5894 5895 5897 5899 5902 5905 5908 5911 5913 5914 5915 5915 5916 5917 5918 5919 5920 5922 5924 5925 5926 5926 5925 5924 5924 5923 5923 5921 5920 5918 5917 5915
5811 5814 5816 5821 5835 5848 5852 5855 5856 5858 5861 5866 5872 5879 5882 5885 5888 5891 5893 5895 5898 5900 5902 5906 5910 5912 5914 5914 5914 5915 5915 5917 5918 5919 5920 5922 5923 5924 5924 5924 5923 5922 5922 5921 5920 5918 5916 5914 5912
5798 5802 5808 5815 5826 5835 5845 5847 5850 5854 5856 5860 5866 5874 5878 5882 5884 5887 5891 5892 5896 5899 5900 5905 5908 5911 5912 5913 5913 5913 5913 5915 5916 5917 5918 5920 5921 5921 5922 5921 5921 5920 5920 5919 5917 5916 5915 5913 5910
5784 5788 5792 5802 5816 5827 5835 5838 5844 5845 5851 5854 5859 5867 5874 5877 5881 5883 5887 5891 5893 5896 5900 5902 5906 5909 5910 5911 5911 5912 5912 5913 5915 5916 5917 5918 5918 5919 5919 5918 5918 5917 5916 5915 5915 5914 5912 5911 5909
5768 5772 5778 5793 5806 5817 5823 5828 5832 5838 5841 5846 5852 5860 5866 5871 5877 5880 5885 5888 5891 5893 5897 5900 5903 5905 5907 5908 5909 5910 5911 5911 5913 5914 5915 5915 5916 5916 5916 5916 5915 5914 5913 5912 5911 5910 5909 5907 5905
5750 5759 5768 5782 5793 5803 5812 5818 5822 5828 5834 5839 5846 5853 5859 5864 5872 5875 5880 5884 5887 5889 5891 5895 5899 5901 5903 5904 5905 5906 5908 5908 5910 5911 5912 5913 5913 5913 5912 5912 5912 5912 5911 5910 5908 5906 5905 5903 5900
5735 5746 5754 5766 5779 5789 5800 5806 5811 5818 5825 5833 5842 5846 5852 5858 5865 5870 5873 5878 5882 5885 5887 5890 5893 5897 5899 5901 5901 5902 5904 5904 5905 5906 5908 5908 5908 5909 5908 5909 5909 5909 5907 5905 5904 5902 5900 5898 5896
5719 5732 5737 5750 5765 5774 5786 5795 5801 5809 5818 5825 5831 5840 5845 5852 5861 5863 5867 5872 5876 5879 5882 5883 5887 5892 5895 5898 5898 5898 5899 5901 5901 5902 5903 5904 5903 5904 5904 5905 5905 5904 5903 5900 5899 5898 5897 5895 5892
5704 5715 5722 5736 5750 5759 5772 5783 5791 5803 5809 5815 5821 5832 5838 5846 5854 5859 5862 5866 5870 5873 5877 5880 5884 5887 5889 5891 5893 5895 5896 5897 5898 5899 5900 5899 5899 5899 5898 5899 5900 5898 5896 5895 5895 5894 5892 5890 5888
5692 5698 5707 5719 5733 5746 5760 5770 5779 5796 5799 5805 5811 5823 5832 5838 5847 5854 5858 5860 5864 5867 5871 5875 5879 5882 5884 5886 5888 5890 5892 5893 5894 5895 5896 5895 5895 5895 5894 5895 5894 5892 5891 5891 5890 5887 5886 5884 5882
5677 5683 5690 5706 5721 5734 5746 5756 5777 5787 5790 5795 5803 5812 5825 5831 5840 5849 5852 5856 5859 5863 5866 5868 5873 5877 5878 5881 5883 5884 5886 5889 5891 5891 5891 5890 5890 5890 5889 5889 5889 5888 5886 5884 5884 5881 5880 5877 5876
5658 5664 5675 5697 5708 5724 5735 5759 5765 5772 5779 5788 5794 5804 5816 5825 5834 5841 5846 5851 5854 5858 5861 5862 5868 5872 5876 5879 5880 5883 5884 5885 5887 5887 5886 5886 5885 5885 5883 5882 5880 5878 5875 5875 5874 5872 5872 5869 5867
5638 5651 5666 5686 5701 5712 5728 5746 5751 5760 5769 5779 5785 5796 5807 5818 5828 5835 5840 5846 5848 5853 5855 5858 5862 5868 5872 5875 5878 5880 5882 5884 5885 5885 5884 5883 5880 5878 5875 5872 5870 5868 5866 5863 5861 5863 5862 5861 5859
5633 5643 5656 5675 5690 5704 5717 5730 5741 5750 5759 5771 5778 5788 5799 5811 5821 5829 5835 5840 5847 5850 5852 5855 5858 5863 5867 5869 5872 5874 5877 5879 5879 5879 5878 5875 5872 5871 5869 5864 5862 5858 5854 5850 5851 5851 5852 5852 5852
5623 5633 5648 5665 5679 5692 5710 5716 5730 5741 5750 5761 5768 5779 5792 5802 5814 5822 5829 5834 5839 5845 5850 5851 5853 5857 5860 5864 5868 5869 5872 5873 5873 5872 5870 5868 5868 5866 5860 5855 5855 5851 5848 5847 5847 5845 5845 5845 5843
5618 5629 5643 5656 5667 5683 5692 5705 5719 5732 5742 5754 5763 5774 5786 5795 5808 5817 5824 5830 5835 5839 5843 5846 5850 5852 5857 5860 5862 5864 5866 5867 5865 5866 5863 5862 5860 5857 5852 5850 5845 5845 5842 5842 5840 5839 5838 5836 5835
5616 5627 5638 5650 5661 5672 5683 5693 5710 5725 5737 5747 5756 5769 5779 5791 5802 5812 5820 5824 5829 5835 5839 5843 5846 5848 5853 5854 5857 5859 5859 5858 5858 5857 5855 5850 5850 5842 5839 5839 5832 5831 5833 5834 5833 5832 5833 5828 5829
5620 5627 5635 5646 5657 5671 5680 5694 5705 5720 5732 5742 5752 5764 5775 5786 5796 5805 5813 5819 5822 5829 5833 5837 5841 5844 5846 5848 5851 5850 5851 5850 5852 5850 5847 5842 5838 5835 5828 5825 5825 5824 5825 5824 5823 5822 5822 5824 5821
5619 5629 5635 5642 5651 5664 5676 5691 5701 5712 5725 5738 5751 5761 5770 5780 5789 5799 5807 5811 5816 5822 5826 5831 5835 5837 5839 5840 5842 5843 5845 5845 5843 5842 5837 5832 5829 5828 5821 5814 5811 5814 5818 5816 5818 5816 5815 5817 5815
5622 5628 5635 5643 5653 5663 5675 5686 5698 5712 5732 5738 5745 5755 5765 5773 5782 5790 5797 5805 5811 5817 5822 5825 5829 5831 5833 5835 5835 5835 5836 5836 5835 5832 5829 5827 5826 5820 5816 5808 5809 5810 5808 5808 5808 5807 5809 5810 5808
5620 5628 5637 5645 5653 5664 5673 5684 5698 5709 5720 5731 5741 5750 5758 5767 5776 5783 5792 5798 5804 5811 5816 5819 5821 5823 5825 5828 5828 5827 5826 5826 5826 5825 5823 5822 5819 5811 5807 5806 5806 5807 5805 5802 5802 5802 5802 5801 5801
5624 5632 5639 5646 5655 5664 5673 5682 5693 5704 5714 5723 5731 5742 5751 5760 5768 5777 5784 5791 5797 5802 5807 5811 5815 5818 5820 5821 5820 5819 5816 5815 5815 5815 5815 5814 5809 5805 5803 5802 5801 5801 5798 5796 5798 5798 5797 5796 5793
5625 5633 5640 5647 5656 5664 5673 5682 5689 5700 5709 5717 5726 5735 5743 5752 5761 5770 5777 5783 5789 5795 5801 5805 5809 5810 5812 5812 5812 5811 5810 5809 5806 5805 5804 5804 5800 5799 5797 5799 5799 5796 5794 5793 5792 5791 5791 5789 5785
5627 5635 5642 5647 5655 5663 5672 5680 5686 5696 5705 5713 5722 5731 5739 5746 5755 5763 5770 5776 5782 5789 5794 5797 5800 5801 5802 5803 5804 5804 5803 5802 5801 5799 5795 5792 5792 5790 5790 5789 5786 5786 5786 5787 5786 5786 5783 5780 5774
5630 5636 5643 5649 5656 5662 5670 5678 5686 5694 5703 5710 5717 5724 5733 5743 5750 5757 5764 5770 5776 5782 5785 5789 5791 5794 5795 5795 5795 5794 5793 5792 5790 5787 5783 5781 5782 5782 5781 5781 5781 5778 5779 5781 5778 5777 5773 5770 5767
5631 5638 5643 5649 5657 5663 5670 5678 5684 5691 5699 5706 5714 5721 5727 5737 5745 5751 5759 5765 5770 5774 5778 5782 5784 5786 5788 5789 5789 5787 5785 5784 5782 5776 5772 5775 5774 5775 5774 5773 5771 5771 5772 5772 5770 5766 5765 5762 5759